[[{"header":{"parameterUnit":"m.s-1","parameterCategory":1,"la1":30.2991,"la2":30.254,"lo1":-89.0895,"lo2":-89.0444,"dy":0.0017,"dx":0.0017,"nx":28,"ny":28,"refTime":"2023-08-31T21:00:00:Z","depth":0,"parameterNumber":2,"parameterNumberName":"U-component_of_WINDS"},"data":[0,0,0,0,0,0,0,0,0,0,0,0,0,0,0,0,0,0,0,0,0,0,0,0,0,0,0,0,0,0,0,0,0,0,0,0,0,0,0,0,0,0,0,0,0,0,0,0,0,0,0,0,0,0,0,0,0,0,0.4426,0.4426,0,0.4434,0.4434,0.4434,0.4403,0.4402,0.4401,0.44,0.441,0.4411,0.4412,0,0,0,0,0,0,0,0,0,0,0,0,0,0.4384,0.4385,0.4426,0.4426,0.4426,0.4434,0.4434,0.4434,0.4403,0.4402,0.4401,0.44,0.441,0.4411,0.4413,0,0,0,0,0,0,0,0,0,0,0,0,0,0.4399,0.4386,0.4426,0.4412,0.441,0.4434,0.4434,0.4434,0.4403,0.4402,0.4401,0.4399,0.4409,0.4411,0.4413,0.4451,0,0,0.4418,0.4419,0,0,0,0,0,0,0,0,0.4398,0.44,0.4414,0.4413,0.4411,0.4416,0.4423,0.444,0.4404,0.4406,0.44,0.4399,0.4413,0.4415,0.4419,0.4452,0.4452,0.4418,0.4419,0.442,0.442,0,0,0,0,0,0,0,0.4397,0.44,0.4429,0.4414,0.4412,0.4405,0.4405,0.4426,0.4418,0.4406,0.4403,0.4405,0.4412,0.4418,0.4419,0.4452,0.4418,0.442,0.4421,0.4421,0.4514,0.4516,0,0,0,0,0,0,0.4398,0.4399,0.4429,0.4429,0.4401,0.4407,0.4407,0.4416,0.4417,0.4416,0.4406,0.4403,0.4415,0.4417,0.442,0.4463,0.442,0.4421,0.4422,0.4513,0.4515,0.4516,0,0,0,0,0,0,0.4397,0.4401,0.4429,0.4414,0.4417,0.4409,0.4419,0.4417,0.4422,0.4417,0.4416,0.4413,0.4414,0.4417,0.4443,0.4463,0.4422,0.4424,0.4511,0.4514,0.4516,0.4552,0,0,0,0,0,0,0.4396,0.4401,0.4415,0.4414,0.4417,0.4452,0.442,0.4418,0.4425,0.4421,0.4423,0.4422,0.4414,0.4441,0.4445,0.4465,0.4425,0.4509,0.4512,0.4515,0.4549,0.4555,0.456,0,0,0,0,0,0.4394,0.4426,0.4416,0.442,0.4435,0.4453,0.4455,0.4444,0.4427,0.4441,0.4438,0.4422,0.446,0.4443,0.4448,0.4469,0.4508,0.4511,0.4515,0.4546,0.4554,0.456,0,0,0,0,0,0,0.443,0.4425,0.4414,0.4446,0.445,0.4448,0.4466,0.4452,0.4462,0.4458,0.4445,0.4445,0.4473,0.4474,0.4455,0.4505,0.4481,0.4486,0.4504,0.4511,0.4517,0.4516,0.4426,0,0,0,0,0,0.4442,0.4456,0.4451,0.448,0.4482,0.4474,0.4481,0.4472,0.4476,0.4477,0.4476,0.4481,0.4493,0.4502,0.4514,0.4549,0.4548,0.4565,0.4571,0.4576,0.4579,0.4597,0.4604,0.4527,0.4527,0.4527,0,0,0.4466,0.4465,0.4475,0.4487,0.4489,0.4504,0.4475,0.4493,0.4504,0.448,0.4504,0.4503,0.4507,0.4537,0.455,0.4538,0.46,0.458,0.4584,0.4585,0.4601,0.4608,0.4614,0.4529,0.4529,0.4529,0,0,0.4517,0.4519,0.4542,0.4544,0.4546,0.454,0.4546,0.4545,0.4543,0.4567,0.4548,0.4562,0.4584,0.4587,0.4592,0.4643,0.4629,0.4647,0.4677,0.4694,0.47,0.4705,0.4723,0.4729,0.4651,0.4651,0.4651,0,0.4547,0.4569,0.4556,0.4574,0.4579,0.4557,0.458,0.4583,0.459,0.4594,0.458,0.4607,0.4608,0.4638,0.465,0.4655,0.4661,0.4647,0.47,0.4705,0.471,0.4726,0.4733,0.4653,0.4653,0.4653,0.4653,0,0.4605,0.462,0.4639,0.4644,0.4652,0.4673,0.4662,0.4671,0.4661,0.4656,0.468,0.468,0.4691,0.4697,0.4688,0.4726,0.4718,0.4703,0.4678,0.472,0.4735,0.4741,0.4657,0.4656,0.4655,0.4655,0,0,0.468,0.4677,0.4684,0.4685,0.4686,0.4698,0.4717,0.4726,0.4734,0.4739,0.4755,0.4774,0.4759,0.4764,0.4755,0.477,0.4809,0.4753,0.4752,0.4762,0.4849,0.486,0.4867,0.4799,0.4801,0.4801,0.4848,0,0.473,0.4762,0.475,0.4783,0.4796,0.4775,0.4791,0.4793,0.4789,0.48,0.4796,0.4809,0.4789,0.4791,0.4805,0.4801,0.4826,0.4798,0.4814,0.4814,0.4813,0.4875,0.4888,0.4932,0.4854,0.4855,0.4856,0,0.4792,0.4798,0.4833,0.4829,0.4835,0.485,0.4856,0.4867,0.4869,0.4865,0.487,0.4857,0.4876,0.4851,0.4876,0.4857,0.4863,0.4862,0.4863,0.4864,0.4837,0.4877,0.4946,0.4952,0.4865,0.4864,0.4864,0,0.4842,0.4859,0.4882,0.4884,0.4881,0.4892,0.4891,0.4892,0.4898,0.4904,0.4907,0.4916,0.4921,0.4928,0.4918,0.4901,0.4944,0.4919,0.4941,0.4941,0.4951,0.495,0.502,0.4955,0.4955,0.4955,0.4955,0,0.4899,0.492,0.4904,0.4917,0.4941,0.4926,0.4949,0.4947,0.4947,0.4959,0.4942,0.4954,0.494,0.4951,0.4943,0.4964,0.4967,0.4964,0.4962,0.4965,0.4966,0.4969,0.4965,0.4957,0.4956,0.4956,0.4956,0,0.4959,0.4949,0.4971,0.4966,0.4965,0.4982,0.4978,0.499,0.4984,0.5,0.5003,0.4994,0.5006,0.4996,0.5008,0.5003,0.5031,0.5025,0.503,0.5028,0.505,0.5048,0.5124,0.5133,0.5063,0.5064,0.5064,0,0.4995,0.5011,0.5007,0.5013,0.5014,0.5025,0.503,0.5016,0.5023,0.5025,0.5037,0.5047,0.5055,0.5074,0.5069,0.5078,0.5071,0.5097,0.5072,0.5075,0.5071,0.507,0.5071,0.5102,0.5103,0.5104,0.5104,0,0.506,0.5054,0.5062,0.5069,0.5075,0.508,0.5083,0.509,0.5075,0.5083,0.5095,0.51,0.5111,0.5121,0.5128,0.5128,0.5114,0.5112,0.5117,0.5121,0.5123,0.5122,0.5043,0.511,0.511,0.5109,0.5109,0.5109,0.5109,0.5121,0.512,0.5129,0.513,0.5133,0.5144,0.5138,0.5147,0.5155,0.5146,0.516,0.516,0.5167,0.5168,0.5179,0.5168,0.5176,0.5178,0.518,0.5183,0.5122,0.518,0.518,0.518,0.518,0.518,0,0.5173,0.517,0.5179,0.5183,0.519,0.5175,0.5178,0.5185,0.5197,0.5198,0.5205,0.5217,0.5227,0.5221,0.5229,0.5239,0.5232,0.5241,0.524,0.524,0.5192,0.5187,0.5246,0.5246,0.5246,0.5246,0.5246,0.5246,0.5206,0.5226,0.522,0.5239,0.5237,0.5249,0.5252,0.5254,0.5255,0.5269,0.5276,0.5272,0.5271,0.5278,0.5286,0.5284,0.5288,0.5299,0.5295,0.525,0.5244,0.5237,0.5232,0.53,0.53,0.5342,0.5342,0.5342]},{"header":{"parameterUnit":"m.s-1","parameterCategory":1,"la1":30.2991,"la2":30.254,"lo1":-89.0895,"lo2":-89.0444,"dy":0.0017,"dx":0.0017,"nx":28,"ny":28,"refTime":"2023-08-31T21:00:00:Z","depth":0,"parameterNumber":3,"parameterNumberName":"V-component_of_WINDS"},"data":[0,0,0,0,0,0,0,0,0,0,0,0,0,0,0,0,0,0,0,0,0,0,0,0,0,0,0,0,0,0,0,0,0,0,0,0,0,0,0,0,0,0,0,0,0,0,0,0,0,0,0,0,0,0,0,0,0,0,3.1815,3.1815,0,3.1886,3.1887,3.1887,3.1836,3.1833,3.1831,3.1829,3.1899,3.1903,3.1907,0,0,0,0,0,0,0,0,0,0,0,0,0,3.1628,3.1632,3.1814,3.1815,3.1816,3.1886,3.1887,3.1888,3.1836,3.1833,3.183,3.1828,3.1897,3.1902,3.1907,0,0,0,0,0,0,0,0,0,0,0,0,0,3.1705,3.1633,3.1814,3.1799,3.1798,3.1886,3.1887,3.1888,3.1836,3.1833,3.183,3.1826,3.1896,3.1902,3.1908,3.2013,0,0,3.1926,3.1929,0,0,0,0,0,0,0,0,3.1701,3.1712,3.18,3.18,3.1799,3.1848,3.1846,3.193,3.1837,3.1822,3.1829,3.1825,3.1885,3.1891,3.1912,3.2016,3.2019,3.1926,3.193,3.1933,3.1934,0,0,0,0,0,0,0,3.1695,3.1708,3.1843,3.1802,3.1801,3.1786,3.1794,3.1862,3.1871,3.1823,3.1819,3.1829,3.1884,3.1906,3.1913,3.202,3.1926,3.1932,3.1935,3.1938,3.221,3.2213,0,0,0,0,0,0,3.1692,3.1704,3.184,3.1845,3.1741,3.1793,3.1801,3.1836,3.1871,3.1873,3.1832,3.1826,3.1898,3.1906,3.1916,3.2038,3.1933,3.1938,3.1942,3.2206,3.2211,3.2215,0,0,0,0,0,0,3.1688,3.1705,3.1837,3.1774,3.1789,3.18,3.184,3.1839,3.1862,3.1877,3.1878,3.1853,3.1896,3.1907,3.1988,3.204,3.1941,3.1946,3.2202,3.2208,3.2213,3.2286,0,0,0,0,0,0,3.1683,3.1704,3.1745,3.1775,3.1793,3.1911,3.1843,3.1843,3.1873,3.1866,3.1898,3.19,3.1894,3.198,3.1994,3.2046,3.1951,3.2197,3.2205,3.2211,3.2279,3.2293,3.2306,0,0,0,0,0,3.1677,3.1764,3.1748,3.1765,3.1846,3.1914,3.1924,3.1916,3.1877,3.1918,3.1927,3.1899,3.2032,3.1989,3.2005,3.2059,3.2194,3.2203,3.2211,3.2273,3.229,3.2305,0,0,0,0,0,0,3.174,3.1767,3.175,3.185,3.188,3.1905,3.1957,3.1936,3.1977,3.1969,3.1957,3.1964,3.2049,3.2062,3.2013,3.2161,3.2107,3.2118,3.2149,3.2165,3.2178,3.2172,3.1956,0,0,0,0,0,3.1765,3.182,3.1841,3.1926,3.1942,3.1947,3.1977,3.1968,3.1998,3.2011,3.2026,3.2055,3.2103,3.2135,3.2181,3.2281,3.2285,3.2326,3.2339,3.235,3.236,3.241,3.2427,3.2242,3.2242,3.2241,0,0,3.1818,3.184,3.1875,3.1939,3.1962,3.2016,3.1958,3.2019,3.2059,3.202,3.2096,3.2109,3.214,3.2231,3.2271,3.2244,3.2412,3.2361,3.2369,3.2373,3.242,3.2437,3.2453,3.2247,3.2246,3.2245,0,0,3.1942,3.1966,3.2038,3.2061,3.2096,3.2098,3.2115,3.2143,3.2149,3.2227,3.2197,3.2243,3.2328,3.235,3.2373,3.2503,3.2477,3.2518,3.2586,3.2635,3.265,3.2662,3.2705,3.2721,3.2528,3.2528,3.2528,0,3.2004,3.2086,3.2077,3.214,3.2167,3.2134,3.2205,3.2228,3.2275,3.2294,3.2263,3.2366,3.2386,3.2479,3.251,3.2531,3.2547,3.2513,3.2649,3.2661,3.2673,3.2714,3.273,3.2532,3.2532,3.2531,3.2531,0,3.2158,3.2215,3.2269,3.2315,3.2349,3.2415,3.2414,3.2449,3.2436,3.2441,3.2518,3.254,3.2587,3.2609,3.2598,3.27,3.2681,3.2651,3.2595,3.2695,3.2733,3.2749,3.2539,3.2537,3.2536,3.2535,0,0,3.2324,3.2363,3.2383,3.2401,3.2436,3.2479,3.2543,3.2589,3.2618,3.2651,3.2702,3.2773,3.2743,3.2769,3.2759,3.2803,3.2899,3.2766,3.2766,3.2787,3.3008,3.303,3.3048,3.2883,3.2886,3.2888,3.3005,0,3.2448,3.2559,3.2551,3.2656,3.2706,3.2674,3.2729,3.2755,3.276,3.2802,3.2808,3.2857,3.2816,3.283,3.2872,3.2879,3.2943,3.2871,3.2927,3.293,3.2918,3.3069,3.3092,3.3201,3.302,3.3022,3.3024,0,3.2607,3.2645,3.2754,3.2777,3.2798,3.2848,3.2888,3.293,3.2957,3.2958,3.2985,3.2968,3.3029,3.2974,3.3056,3.3007,3.303,3.3036,3.304,3.3043,3.2981,3.3073,3.3236,3.3251,3.3048,3.3046,3.3044,0,3.2713,3.2792,3.2866,3.2884,3.2914,3.2949,3.2962,3.2987,3.3014,3.3049,3.3066,3.3107,3.313,3.3161,3.3154,3.3116,3.3237,3.3182,3.3237,3.3237,3.3263,3.3261,3.3429,3.3282,3.3281,3.3281,3.3281,0,3.285,3.2918,3.2914,3.2959,3.3032,3.3022,3.3094,3.3103,3.3125,3.3169,3.3145,3.3187,3.3177,3.3218,3.3214,3.328,3.3291,3.3291,3.3289,3.3292,3.3292,3.3306,3.3297,3.3285,3.3284,3.3284,3.3283,0,3.2981,3.2982,3.306,3.3081,3.3088,3.3141,3.3158,3.32,3.3202,3.3259,3.3272,3.3276,3.3323,3.332,3.3373,3.337,3.3451,3.3441,3.3442,3.3439,3.3492,3.3486,3.3673,3.3695,3.3536,3.3538,3.3539,0,3.3068,3.3118,3.3144,3.3173,3.3189,3.3236,3.3263,3.3253,3.3282,3.3315,3.3352,3.3397,3.3433,3.3509,3.3515,3.3555,3.3544,3.3607,3.355,3.355,3.3541,3.3537,3.3541,3.3617,3.3619,3.362,3.3622,0,3.322,3.3217,3.3258,3.3298,3.3331,3.3362,3.3391,3.3415,3.3408,3.3442,3.3489,3.3517,3.357,3.3614,3.3651,3.3663,3.3641,3.364,3.3654,3.3657,3.3654,3.3653,3.347,3.3635,3.3634,3.3633,3.3632,3.3631,3.3329,3.3371,3.3395,3.344,3.346,3.3487,3.3526,3.3533,3.3573,3.3616,3.3607,3.366,3.3683,3.373,3.3746,3.3786,3.3763,3.3785,3.3789,3.3794,3.3799,3.3649,3.3793,3.3793,3.3792,3.3792,3.3792,0,3.3477,3.349,3.3532,3.3572,3.3607,3.3583,3.3612,3.3642,3.3689,3.3713,3.3747,3.38,3.3842,3.3851,3.389,3.392,3.391,3.393,3.3927,3.3929,3.3819,3.3801,3.3937,3.3937,3.3937,3.3937,3.3937,3.3937,3.3558,3.3627,3.3626,3.3703,3.3716,3.3768,3.3786,3.3809,3.3827,3.3887,3.3922,3.3928,3.3944,3.3984,3.402,3.4021,3.4035,3.4059,3.4056,3.3952,3.3938,3.3924,3.3907,3.4063,3.4063,3.4163,3.4164,3.4165]}]]